Weather History for Denver, CO

Change the Weather History Date:

Monday, March 11, 2013

  Actual Average (KDEN) Record (KDEN)
Temperature  
Mean Temperature 42 °F 39 °F  
Max Temperature 51 °F 53 °F 79 °F (1900)
Min Temperature 32 °F 25 °F -5 °F (1948)
Degree Days  
Heating Degree Days 24 26  
Month to date heating degree days 301  
Since 1 July heating degree days 4740  
Cooling Degree Days 0 0  
Month to date cooling degree days 0  
Year to date cooling degree days 0  
Moisture  
Dew Point 26 °F    
Average Humidity 71    
Maximum Humidity 100    
Minimum Humidity 35    
Precipitation  
Precipitation 0.00 in 0.02 in 0.66 in (1886)
Month to date precipitation 0.24  
Year to date precipitation 1.02  
Snow  
Snow 0.00 in - - ()
Month to date snowfall  
Since 1 July snowfall  
Snow Depth -    
Sea Level Pressure  
Sea Level Pressure 30.00 in    
Wind  
Wind Speed 10 mph (WSW)    
Max Wind Speed 23 mph    
Max Gust Speed 30 mph    
Visibility 8 miles    
Events Snow    
T = Trace of Precipitation, MM = Missing Value Source: NWS Daily Summary

Daily Weather History Graph

Daily Weather History Graph

Search for Another Location

Airport:

Trip Planner

Search our weather history database for the weather conditions in past years. The results will help you decide how hot, cold, wet, or windy it might be!

Date:

Astronomy

Mar. 11, 2013 Rise Set
Actual Time 7:15 AM MDT 7:01 PM MDT
Civil Twilight 6:48 AM MDT 7:28 PM MDT
Nautical Twilight 6:17 AM MDT 7:59 PM MDT
Astronomical Twilight 5:45 AM MDT 8:31 PM MDT
Moon 6:50 AM MDT (3/11) 7:15 PM MDT (3/11)
Length of Visible Light 12h 39m
Length of Day
11h 45m
Waning Crescent, 0% of the Moon is Illuminated
Mar 11
Waning Crescent
Mar 11
New
Mar 19
First Quarter
Mar 27
Full
Apr 2
Last Quarter

Hourly Weather History & Observations

Time (MDT) Temp. Windchill Dew Point Humidity Pressure Visibility Wind Dir Wind Speed Gust Speed Precip Events Conditions
12:16 AM 33.8 °F 26.4 °F 21.2 °F 60% 30.00 in 10.0 mi SW 9.2 mph - N/A   Clear
12:56 AM 33.8 °F 25.3 °F 21.2 °F 60% 29.99 in 10.0 mi SW 11.5 mph - N/A   Clear
1:16 AM 33.8 °F 25.8 °F 21.2 °F 60% 29.98 in 10.0 mi SW 10.4 mph - N/A   Clear
1:35 AM 35.6 °F 27.5 °F 21.2 °F 56% 29.98 in 10.0 mi SW 11.5 mph - N/A   Clear
1:55 AM 33.8 °F 26.4 °F 21.2 °F 60% 29.98 in 10.0 mi SW 9.2 mph - N/A   Clear
2:16 AM 33.8 °F 25.3 °F 21.2 °F 60% 29.97 in 10.0 mi SW 11.5 mph - N/A   Clear
2:36 AM 33.8 °F 24.8 °F 21.2 °F 60% 29.96 in 10.0 mi SW 12.7 mph - N/A   Clear
2:55 AM 35.6 °F 27.5 °F 21.2 °F 56% 29.95 in 10.0 mi SW 11.5 mph - N/A   Clear
3:15 AM 33.8 °F 25.8 °F 21.2 °F 60% 29.94 in 10.0 mi SW 10.4 mph - N/A   Clear
3:35 AM 33.8 °F 25.8 °F 21.2 °F 60% 29.93 in 10.0 mi SW 10.4 mph - N/A   Clear
3:56 AM 33.8 °F 25.8 °F 21.2 °F 60% 29.93 in 10.0 mi WSW 10.4 mph - N/A   Scattered Clouds
4:16 AM 35.6 °F 27.1 °F 21.2 °F 56% 29.93 in 10.0 mi SW 12.7 mph - N/A   Mostly Cloudy
4:36 AM 35.6 °F 27.5 °F 23.0 °F 60% 29.91 in 10.0 mi WSW 11.5 mph - N/A   Scattered Clouds
4:55 AM 35.6 °F 27.5 °F 21.2 °F 56% 29.91 in 10.0 mi WSW 11.5 mph - N/A   Scattered Clouds
5:15 AM 35.6 °F 27.1 °F 23.0 °F 60% 29.93 in 10.0 mi West 12.7 mph - N/A   Overcast
5:36 AM 37.4 °F 31.4 °F 26.6 °F 65% 29.93 in 10.0 mi WSW 8.1 mph - N/A   Overcast
5:55 AM 35.6 °F 28.0 °F 26.6 °F 70% 29.94 in 10.0 mi West 10.4 mph - N/A   Mostly Cloudy
6:16 AM 37.4 °F 30.3 °F 24.8 °F 60% 29.94 in 10.0 mi West 10.4 mph - N/A   Clear
6:35 AM 37.4 °F 30.3 °F 24.8 °F 60% 29.94 in 10.0 mi WSW 10.4 mph - N/A   Clear
6:53 AM 37.4 °F 29.8 °F 23.0 °F 56% 29.95 in 10.0 mi WSW 11.5 mph - N/A   Clear
7:50 AM 37.4 °F 32.1 °F 21.2 °F 52% 29.96 in 50.0 mi West 6.9 mph - N/A   Mostly Cloudy
9:47 AM 44.6 °F 38.8 °F 24.8 °F 46% 29.99 in 50.0 mi WSW 11.5 mph - N/A   Mostly Cloudy
11:50 AM 48.2 °F - 24.8 °F 40% 29.97 in 50.0 mi West 12.7 mph - N/A   Scattered Clouds
1:50 PM 51.8 °F - 24.8 °F 35% 29.92 in 50.0 mi WNW 16.1 mph 23.0 mph N/A   Mostly Cloudy
2:47 PM 51.8 °F - 26.6 °F 38% 29.92 in 50.0 mi WNW 17.3 mph - N/A   Mostly Cloudy
3:53 PM 50.0 °F - 28.4 °F 43% 29.92 in 50.0 mi West 15.0 mph 23.0 mph N/A   Mostly Cloudy
5:25 PM 37.4 °F 27.5 °F 33.8 °F 87% 29.96 in 8.0 mi NE 18.4 mph 29.9 mph N/A   Overcast
5:47 PM 35.6 °F 24.0 °F 32.0 °F 87% 29.99 in 7.0 mi NE 23.0 mph 28.8 mph N/A   Overcast
6:48 PM 32.0 °F 19.2 °F 32.0 °F 100% 30.01 in 10.0 mi ENE 23.0 mph - N/A   Overcast
7:48 PM 32.0 °F 23.6 °F 32.0 °F 100% 30.07 in 10.0 mi ENE 10.4 mph - N/A   Overcast
8:02 PM 32.0 °F 25.6 °F 30.2 °F 93% 30.08 in 2.5 mi NE 6.9 mph - N/A Snow Light Snow
8:37 PM 32.0 °F 28.7 °F 32.0 °F 100% 30.09 in 5.0 mi ESE 3.5 mph - N/A Snow Light Snow
8:57 PM 32.0 °F - 32.0 °F 100% 30.10 in 5.0 mi Calm Calm - N/A Snow Light Snow
9:17 PM 32.0 °F - 32.0 °F 100% 30.10 in 3.0 mi Calm Calm - N/A Snow Light Snow
9:37 PM 32.0 °F - 32.0 °F 100% 30.12 in 2.5 mi Calm Calm - N/A Snow Light Snow
10:16 PM 32.0 °F - 32.0 °F 100% 30.12 in 1.5 mi Calm Calm - N/A Snow Snow
10:36 PM 32.0 °F 27.5 °F 32.0 °F 100% 30.12 in 1.0 mi SSE 4.6 mph - N/A Snow Light Snow
10:56 PM 32.0 °F - 32.0 °F 100% 30.12 in 4.0 mi Calm Calm - N/A Snow Light Snow
11:16 PM 32.0 °F - 32.0 °F 100% 30.13 in 1.0 mi Calm Calm - N/A Snow Snow
11:36 PM 32.0 °F - 32.0 °F 100% 30.14 in 1.2 mi Calm Calm - N/A Snow Snow
11:56 PM 32.0 °F - 32.0 °F 100% 30.14 in 1.2 mi Calm Calm - N/A Snow Light Snow